Regional Weather Roundup
Issued by NWS

Home | Current Version | Previous Version | Text Only | Print | Product List | Glossary On
Versions: 1 2 3 4 5 6 7 8 9 10 11 12 13 14 15 16 17 18 19 20 21 22 23 24 25 26 27 28 29 30 31 32 33 34 35 36 37 38 39 40 41 42 43 44 45 46 47 48
000
ASUS45 KCYS 280710
RWRWY

WYOMING REGIONAL WEATHER ROUNDUP
NATIONAL WEATHER SERVICE CHEYENNE WY
1200 AM MST WED JAN 28 2015

NOTE:  "FAIR" INDICATES FEW OR NO CLOUDS BELOW 12,000 FEET
WITH NO SIGNIFICANT WEATHER AND/OR OBSTRUCTIONS TO VISIBILITY.

WYZ001-280800-
YELLOWSTONE NATIONAL PARK

CITY           SKY/WX    TMP DP  RH WIND       PRES   REMARKS
LK YELLOWSTONE   N/A     30  29  96 CALM      30.14S
W YELLOWSTONE  NOT AVBL

$$
WYZ002>013-054>058-071-098>099-280800-
NORTHERN WYOMING

CITY           SKY/WX    TMP DP  RH WIND       PRES   REMARKS
JACKSON        CLOUDY    28  27  93 E5        30.13S WCI  23
CODY           CLOUDY    52  28  40 N5        29.95R
GREYBULL       CLOUDY    31  27  85 CALM      29.96S
WORLAND        FAIR      28  25  88 SE8       29.95F WCI  20
SHERIDAN       FAIR      39  27  62 SE7       29.87S WCI  34
BUFFALO        FAIR      46  25  43 W3        29.91R
GILLETTE       FAIR      43  30  60 SW12      29.86R
HULETT           N/A    N/A N/A N/A MISG        N/A
NEWCASTLE      FAIR      36  28  75 CALM      29.91S

$$
WYZ014>020-022>026-101>103-280800-
CENTRAL WYOMING

CITY           SKY/WX    TMP DP  RH WIND       PRES   REMARKS
BIG PINEY      FAIR      22  20  92 CALM      30.16S
PINEDALE       PTSUNNY   19  18  93 W6        30.16S WCI  11
DUBOIS         FAIR      34  30  86 W12       30.08S WCI  25
LANDER         FAIR      40  25  55 SW7       30.03R
RIVERTON       FAIR      33  28  81 W8        30.04S WCI  26
CASPER         FAIR      43  28  55 SW21      30.02R
DOUGLAS        FAIR      47  28  47 W20       29.96F

$$
WYZ021-027>030-104>119-280800-
SOUTHERN WYOMING

CITY           SKY/WX    TMP DP  RH WIND       PRES   REMARKS
EVANSTON       FLURRIES  35  30  82 W7        30.20R WCI  29
KEMMERER       LGT SNOW  32  30  93 W6        30.18S WCI  26
FORT BRIDGER   FAIR      36  31  81 SW10      30.20S WCI  29
ROCK SPRINGS   FAIR      34  27  75 W7        30.16S WCI  28
DIXON          CLOUDY    38  33  80 S8        30.23F WCI  33
RAWLINS        CLOUDY    40  31  70 SW20      30.15S WCI  30
SARATOGA       CLOUDY    37  32  81 SW20      30.18R WCI  27
LARAMIE        FAIR      37  25  61 SW7       30.12S WCI  32
CHEYENNE       FAIR      48  25  40 SW20      30.03F
TORRINGTON     FAIR      43  26  51 SW3       29.96S
PINE BLUFFS    FAIR      46  28  49 NW17      29.99F

$$



USA.gov is the U.S. government's official web portal to all federal, state and local government web resources and services.